FENTRESS NALF, VA

3:07 AM EDT on March 24, 2017 (GMT -0400)
Fentress Naval Air Landing Field

Weather History for KNFE - January, 2014

Change the Weather History Date:

Friday, January 24, 2014

  Actual Average (KNTU) Record (KNTU)
Temperature  
Mean Temperature 23 °F -  
Max Temperature 28 °F 45 °F 69 °F (2002)
Min Temperature 18 °F 29 °F 15 °F (2014)
Degree Days  
Heating Degree Days 42    
Moisture  
Dew Point -1 °F    
Average Humidity 37    
Maximum Humidity 50    
Minimum Humidity 24    
Precipitation  
Precipitation 0.00 in - - ()
Sea Level Pressure  
Sea Level Pressure 30.46 in    
Wind  
Wind Speed 8 mph (NW)    
Max Wind Speed 15 mph    
Max Gust Speed 22 mph    
Visibility 10 miles    
Events      
Averages and records for this station are not official NWS values.
T = Trace of Precipitation, MM = Missing Value Source: NWS Daily Summary

Daily Weather History Graph

Daily Weather History Graph

Search for Another Location

Airport or City:

Trip Planner

Search our weather history database for the weather conditions in past years. The results will help you decide how hot, cold, wet, or windy it might be!

Date:

Astronomy

Jan. 24, 2014 Rise Set
Actual Time 7:12 AM EST 5:21 PM EST
Civil Twilight 6:44 AM EST 5:49 PM EST
Nautical Twilight 6:13 AM EST 6:20 PM EST
Astronomical Twilight 5:42 AM EST 6:51 PM EST
Moon 12:39 AM EST 11:37 AM EST
Length of Visible Light 11h 04m
Length of Day
10h 09m
Last Quarter, 45% of the Moon is Illuminated
Jan 24
Last Quarter
Jan 30
New
Feb 6
First Quarter
Feb 14
Full
Feb 22
Last Quarter

Hourly Weather History & Observations

Time (EST) Temp. Windchill Dew Point Humidity Pressure Visibility Wind Dir Wind Speed Gust Speed Precip Events Conditions
12:56 AM 24.1 °F 13.7 °F -2.9 °F 31% 30.43 in 10.0 mi NNW 10.4 mph 18.4 mph N/A   Clear
1:56 AM 21.9 °F 10.4 °F -2.9 °F 34% 30.44 in 10.0 mi NNW 11.5 mph 19.6 mph N/A   Clear
2:56 AM 21.0 °F 12.4 °F -2.0 °F 36% 30.46 in 10.0 mi NNW 6.9 mph - N/A   Clear
3:56 AM 21.0 °F 11.4 °F -0.9 °F 38% 30.47 in 10.0 mi NNW 8.1 mph - N/A   Overcast
4:56 AM 21.0 °F 11.4 °F -0.9 °F 38% 30.49 in 10.0 mi NNW 8.1 mph - N/A   Overcast
5:56 AM 19.9 °F 6.2 °F -2.9 °F 37% 30.53 in 10.0 mi North 15.0 mph 21.9 mph N/A   Overcast
6:56 AM 18.0 °F 5.4 °F -2.9 °F 40% 30.54 in 10.0 mi NW 11.5 mph 18.4 mph N/A   Clear
7:56 AM 19.0 °F 7.5 °F -2.0 °F 40% 30.56 in 10.0 mi NW 10.4 mph 19.6 mph N/A   Clear
8:56 AM 21.0 °F 8.6 °F -2.0 °F 36% 30.58 in 10.0 mi NNW 12.7 mph 21.9 mph N/A   Clear
9:56 AM 23.0 °F 11.1 °F -0.9 °F 35% 30.59 in 10.0 mi NNW 12.7 mph 18.4 mph N/A   Clear
10:56 AM 24.1 °F 13.7 °F -0.9 °F 34% 30.57 in 10.0 mi North 10.4 mph - N/A   Clear
11:56 AM 26.1 °F 17.6 °F -0.0 °F 32% 30.53 in 10.0 mi North 8.1 mph - N/A   Clear
12:56 PM 27.0 °F 20.5 °F -2.9 °F 27% 30.49 in 10.0 mi WNW 5.8 mph - N/A   Clear
1:56 PM 27.0 °F 20.5 °F -2.9 °F 27% 30.46 in 10.0 mi Variable 5.8 mph - N/A   Clear
2:56 PM 27.0 °F 23.0 °F -2.0 °F 29% 30.45 in 10.0 mi Variable 3.5 mph - N/A   Clear
3:56 PM 28.0 °F 22.8 °F -5.1 °F 24% 30.45 in 10.0 mi NW 4.6 mph - N/A   Clear
4:56 PM 26.1 °F - -5.1 °F 26% 30.44 in 10.0 mi Calm Calm - N/A   Clear
5:56 PM 23.0 °F - -0.0 °F 37% 30.42 in 10.0 mi Calm Calm - N/A   Clear
6:56 PM 19.9 °F - 1.0 °F 44% 30.40 in 10.0 mi Calm Calm - N/A   Clear
7:56 PM 19.9 °F 14.9 °F 1.0 °F 44% 30.38 in 10.0 mi SSW 3.5 mph - N/A   Clear
8:56 PM 19.0 °F - 1.9 °F 47% 30.37 in 10.0 mi Calm Calm - N/A   Clear
9:56 PM 19.0 °F 13.9 °F -0.0 °F 43% 30.33 in 10.0 mi SSW 3.5 mph - N/A   Clear
10:56 PM 18.0 °F 12.7 °F 1.9 °F 50% 30.31 in 10.0 mi Variable 3.5 mph - N/A   Clear
11:56 PM 18.0 °F 12.7 °F 1.9 °F 50% 30.28 in 10.0 mi SSW 3.5 mph - N/A   Clear